Regional Weather Roundup
Issued by NWS

Home | Current Version | Previous Version | Text Only | Print | Product List | Glossary On
Versions: 1 2 3 4 5 6 7 8 9 10 11 12 13 14 15 16 17 18 19 20 21 22 23 24 25 26 27 28 29 30 31 32 33 34 35 36 37 38 39 40 41 42 43 44 45 46 47 48 49 50
000
ASUS43 KTOP 271908
RWRKS

WEATHER ROUNDUP FOR KANSAS
NATIONAL WEATHER SERVICE GOODLAND KS
200 PM CDT SAT MAY 27 2017

NOTE:  "FAIR" INDICATES FEW OR NO CLOUDS BELOW 12,000 FEET WITH NO
SIGNIFICANT WEATHER AND/OR OBSTRUCTIONS TO VISIBILITY.

KSZ001>006-013>018-027>032-041>047-272000-
NORTHWEST KANSAS

CITY           SKY/WX    TMP DP  RH WIND       PRES   REMARKS
GOODLAND       CLOUDY    63  53  70 N17G26    30.01F
HAYS           CLOUDY    74  60  61 NW13      29.90S
HILL CITY      MOSUNNY   73  60  63 NW16      29.92F
RUSSELL        PTSUNNY   72  60  66 NW9       29.88S
$$

KSZ061>065-074>080-084>089-272000-
SOUTHWEST KANSAS

CITY           SKY/WX    TMP DP  RH WIND       PRES   REMARKS
DODGE CITY     PTSUNNY   77  56  48 N10G20    29.91F
ELKHART          N/A     70  49  47 MISG        N/A
GARDEN CITY    PTSUNNY   75  53  46 N13       29.93F
GREAT BEND     CLOUDY    72  61  68 NW9       29.89S
LIBERAL        CLOUDY    74  58  57 NE10G18   29.93F
PRATT          PTSUNNY   76  54  46 E12       29.86S
$$

KSZ066>073-081>083-090>101-272000-
SOUTHEAST KANSAS

CITY           SKY/WX    TMP DP  RH WIND       PRES   REMARKS
CHANUTE        CLOUDY    77  67  71 E10       29.77R
COFFEYVILLE    CLOUDY    79  77  94 N9        29.74S
HUTCHINSON     CLOUDY    77  54  44 N12       29.84R
MEDICINE LODGE   N/A     80  59  48 E10G21    29.82S
NEWTON         MOSUNNY   81  57  43 E8        29.80F
PARSONS        CLOUDY    74  69  85 VRB3      29.78S
WICHITA INTL   PTSUNNY   77  60  55 NE10      29.81R
WICHITA JABRA  PTSUNNY   78  61  55 E10       29.80F
WICHITA MCCONL CLOUDY    78  60  52 N10       29.81R
WINFIELD       PTSUNNY   80  66  62 E12       29.78F
$$

KSZ007>012-019>026-033>040-048>060-102>105-272000-
NORTHEAST KANSAS

CITY           SKY/WX    TMP DP  RH WIND       PRES   REMARKS
CONCORDIA      PTSUNNY   71  62  73 N7        29.86F
EMPORIA        MOSUNNY   79  61  53 E12       29.77F
LAWRENCE       CLOUDY    69  62  78 E7        29.79R
MANHATTAN      PTSUNNY   74  64  71 N8        29.81F
MARYSVILLE     MOSUNNY   70  61  73 NW7       29.83F
OLATHE IND     CLOUDY    65  60  84 SE13      29.80R
OLATHE EXE     CLOUDY    63  61  93 S10       29.80R
SALINA         CLOUDY    70  62  76 NW12      29.83F
TOPEKA BILLARD PTSUNNY   73  62  68 VRB3      29.79S
TOPEKA FORBES  PTSUNNY   74  62  66 NE6       29.78F
$$




USA.gov is the U.S. government's official web portal to all federal, state and local government web resources and services.